Weather History for KBVN - November, 2012

Change the Weather History Date:

Monday, November 19, 2012

  Actual Average (KOFK) Record (KOFK)
Temperature  
Mean Temperature 45 °F 34 °F  
Max Temperature 63 °F 45 °F 73 °F (1989)
Min Temperature 27 °F 24 °F -4 °F (1914)
Degree Days  
Heating Degree Days 20 31  
Month to date heating degree days 487  
Since 1 July heating degree days 1072  
Cooling Degree Days 0 0  
Month to date cooling degree days 0  
Year to date cooling degree days 915  
Moisture  
Dew Point 32 °F    
Average Humidity 66    
Maximum Humidity 94    
Minimum Humidity 32    
Precipitation  
Precipitation 0.00 in 0.04 in 1.41 in (1975)
Month to date precipitation 0.91  
Year to date precipitation 26.20  
Snow  
Snow 0.00 in 0.20 in - ()
Month to date snowfall 2.1  
Since 1 July snowfall 2.9  
Snow Depth -    
Sea Level Pressure  
Sea Level Pressure 30.05 in    
Wind  
Wind Speed 6 mph (NNW)    
Max Wind Speed 22 mph    
Max Gust Speed 26 mph    
Visibility 10 miles    
Events      
T = Trace of Precipitation, MM = Missing Value Source: NWS Daily Summary

Daily Weather History Graph

Daily Weather History Graph

Search for Another Location

Airport or City:

Trip Planner

Search our weather history database for the weather conditions in past years. The results will help you decide how hot, cold, wet, or windy it might be!

Date:

Astronomy

Nov. 19, 2012 Rise Set
Actual Time 7:26 AM CST 5:08 PM CST
Civil Twilight 6:56 AM CST 5:38 PM CST
Nautical Twilight 6:22 AM CST 6:12 PM CST
Astronomical Twilight 5:49 AM CST 6:45 PM CST
Moon 12:28 PM CST (11/19) 11:39 PM CST (11/19)
Length of Visible Light 10h 41m
Length of Day
9h 41m
Waxing Crescent, 41% of the Moon is Illuminated
Nov 19
Waxing Crescent
Nov 20
First Quarter
Nov 28
Full
Dec 6
Last Quarter
Dec 13
New

Hourly Weather History & Observations

Time (CST) Temp. Windchill Dew Point Humidity Pressure Visibility Wind Dir Wind Speed Gust Speed Precip Events Conditions
12:15 AM 41.0 °F 39.0 °F 34.5 °F 78% 29.98 in 10.0 mi SSE 3.5 mph - N/A   Clear
12:35 AM 39.9 °F 36.7 °F 34.3 °F 80% 29.97 in 10.0 mi SSE 4.6 mph - N/A   Clear
12:55 AM 38.8 °F 35.4 °F 33.8 °F 82% 29.97 in 10.0 mi SSE 4.6 mph - N/A   Clear
1:15 AM 38.3 °F 35.9 °F 33.8 °F 84% 29.97 in 10.0 mi SSE 3.5 mph - N/A   Clear
1:35 AM 38.5 °F 36.1 °F 33.6 °F 83% 29.96 in 10.0 mi SSE 3.5 mph - N/A   Clear
1:55 AM 37.6 °F 34.0 °F 33.6 °F 86% 29.96 in 10.0 mi SE 4.6 mph - N/A   Clear
2:15 AM 35.6 °F 31.7 °F 32.2 °F 87% 29.96 in 10.0 mi ESE 4.6 mph - N/A   Clear
2:35 AM 39.2 °F 34.2 °F 34.3 °F 83% 29.96 in 10.0 mi ESE 6.9 mph - N/A   Clear
2:55 AM 37.0 °F 33.3 °F 32.4 °F 83% 29.96 in 10.0 mi SE 4.6 mph - N/A   Clear
3:15 AM 32.2 °F 28.9 °F 28.8 °F 87% 29.96 in 10.0 mi SE 3.5 mph - N/A   Clear
3:35 AM 36.9 °F 32.2 °F 33.3 °F 87% 29.96 in 10.0 mi SE 5.8 mph - N/A   Clear
3:55 AM 33.8 °F - 30.9 °F 89% 29.96 in 10.0 mi Calm Calm - N/A   Clear
4:15 AM 34.2 °F - 30.6 °F 87% 29.96 in 10.0 mi Calm Calm - N/A   Clear
4:35 AM 33.4 °F 30.4 °F 31.5 °F 92% 29.96 in 10.0 mi ESE 3.5 mph - N/A   Clear
4:55 AM 31.3 °F - 28.4 °F 89% 29.97 in 10.0 mi Calm Calm - N/A   Clear
5:15 AM 31.5 °F - 29.3 °F 92% 29.98 in 7.0 mi Calm Calm - N/A   Clear
5:35 AM 32.9 °F - 31.1 °F 93% 29.97 in 7.0 mi Calm Calm - N/A   Clear
5:55 AM 30.4 °F - 27.9 °F 90% 29.97 in 5.0 mi Calm Calm - N/A   Clear
6:15 AM 29.8 °F - 27.9 °F 92% 29.97 in 5.0 mi Calm Calm - N/A   Clear
6:35 AM 29.1 °F 24.1 °F 27.3 °F 93% 29.98 in 5.0 mi NNW 4.6 mph - N/A   Clear
6:55 AM 29.8 °F 26.3 °F 28.0 °F 93% 29.98 in 5.0 mi NW 3.5 mph - N/A   Clear
7:35 AM 31.8 °F - 30.4 °F 94% 29.99 in 5.0 mi Calm Calm - N/A   Clear
7:55 AM 27.7 °F - 25.3 °F 91% 30.00 in 10.0 mi Calm Calm - N/A   Clear
8:15 AM 38.7 °F 33.6 °F 34.9 °F 86% 30.00 in 10.0 mi NNW 6.9 mph - N/A   Clear
8:35 AM 41.7 °F 34.4 °F 35.6 °F 79% 30.01 in 10.0 mi NNW 13.8 mph - N/A   Clear
8:55 AM 42.4 °F 35.3 °F 36.1 °F 78% 30.01 in 10.0 mi NNW 13.8 mph - N/A   Clear
9:15 AM 45.7 °F 38.0 °F 36.9 °F 71% 30.02 in 10.0 mi NW 19.6 mph 24.2 mph N/A   Clear
9:35 AM 47.1 °F - 36.5 °F 67% 30.03 in 10.0 mi NW 21.9 mph 26.5 mph N/A   Clear
9:55 AM 48.7 °F - 36.9 °F 64% 30.04 in 10.0 mi NW 20.7 mph 26.5 mph N/A   Clear
10:15 AM 51.1 °F - 37.4 °F 60% 30.05 in 10.0 mi NW 19.6 mph 25.3 mph N/A   Clear
10:35 AM 52.7 °F - 37.0 °F 55% 30.05 in 10.0 mi NW 20.7 mph 25.3 mph N/A   Clear
10:55 AM 52.0 °F - 36.0 °F 54% 30.06 in 10.0 mi NW 19.6 mph 24.2 mph N/A   Clear
11:15 AM 53.2 °F - 35.8 °F 52% 30.06 in 10.0 mi NW 18.4 mph - N/A   Clear
11:35 AM 56.1 °F - 36.1 °F 47% 30.06 in 10.0 mi NW 15.0 mph - N/A   Clear
11:55 AM 58.1 °F - 35.8 °F 43% 30.06 in 10.0 mi NW 12.7 mph 19.6 mph N/A   Clear
12:15 PM 59.4 °F - 35.2 °F 40% 30.06 in 10.0 mi NW 18.4 mph 24.2 mph N/A   Clear
12:35 PM 60.1 °F - 34.7 °F 39% 30.06 in 10.0 mi NW 13.8 mph 24.2 mph N/A   Clear
12:55 PM 61.2 °F - 34.5 °F 37% 30.06 in 10.0 mi NW 17.3 mph 20.7 mph N/A   Clear
1:15 PM 61.9 °F - 34.0 °F 35% 30.05 in 10.0 mi NW 15.0 mph 20.7 mph N/A   Clear
1:35 PM 63.1 °F - 33.8 °F 33% 30.05 in 10.0 mi NW 13.8 mph 19.6 mph N/A   Clear
1:55 PM 63.1 °F - 33.4 °F 33% 30.05 in 10.0 mi NNW 13.8 mph 19.6 mph N/A   Clear
2:15 PM 63.3 °F - 33.3 °F 33% 30.05 in 10.0 mi NW 12.7 mph 20.7 mph N/A   Clear
2:35 PM 63.5 °F - 33.4 °F 33% 30.05 in 10.0 mi NNW 10.4 mph 16.1 mph N/A   Clear
2:55 PM 63.5 °F - 33.3 °F 32% 30.05 in 10.0 mi NNW 11.5 mph - N/A   Clear
3:15 PM 62.6 °F - 32.9 °F 33% 30.06 in 10.0 mi NNW 10.4 mph - N/A   Clear
3:35 PM 62.1 °F - 32.9 °F 34% 30.05 in 10.0 mi NW 10.4 mph - N/A   Clear
3:55 PM 61.7 °F - 32.9 °F 34% 30.06 in 10.0 mi NNW 10.4 mph - N/A   Clear
4:15 PM 60.6 °F - 32.5 °F 35% 30.07 in 10.0 mi NNW 11.5 mph - N/A   Clear
4:35 PM 59.9 °F - 32.5 °F 36% 30.08 in 10.0 mi NNW 6.9 mph - N/A   Clear
4:55 PM 57.4 °F - 32.5 °F 39% 30.09 in 10.0 mi North 4.6 mph - N/A   Clear
5:15 PM 54.7 °F - 32.7 °F 43% 30.09 in 10.0 mi North 4.6 mph - N/A   Clear
5:35 PM 48.4 °F - 32.0 °F 53% 30.10 in 10.0 mi NNW 4.6 mph - N/A   Clear
5:55 PM 49.6 °F - 32.5 °F 52% 30.11 in 10.0 mi Calm Calm - N/A   Clear
6:15 PM 47.3 °F - 32.4 °F 56% 30.12 in 10.0 mi NNW 4.6 mph - N/A   Clear
6:35 PM 45.9 °F - 31.5 °F 57% 30.13 in 10.0 mi Calm Calm - N/A   Clear
6:55 PM 42.1 °F - 31.1 °F 65% 30.13 in 10.0 mi Calm Calm - N/A   Clear
7:15 PM 41.4 °F 37.6 °F 31.1 °F 67% 30.13 in 10.0 mi NNW 5.8 mph - N/A   Clear
7:35 PM 41.5 °F 37.8 °F 31.1 °F 66% 30.13 in 10.0 mi NW 5.8 mph - N/A   Clear
7:55 PM 39.4 °F 36.1 °F 30.2 °F 70% 30.15 in 10.0 mi NNW 4.6 mph - N/A   Clear
8:15 PM 42.1 °F 38.4 °F 31.3 °F 66% 30.15 in 10.0 mi NNW 5.8 mph - N/A   Clear
8:35 PM 38.1 °F 34.6 °F 29.3 °F 71% 30.15 in 10.0 mi WNW 4.6 mph - N/A   Clear
9:15 PM 35.1 °F 30.1 °F 28.6 °F 77% 30.16 in 10.0 mi NNW 5.8 mph - N/A   Clear
9:35 PM 36.9 °F 33.1 °F 29.1 °F 74% 30.16 in 10.0 mi NW 4.6 mph - N/A   Clear
9:55 PM 37.0 °F 32.4 °F 28.8 °F 72% 30.16 in 10.0 mi NW 5.8 mph - N/A   Clear
10:15 PM 37.6 °F 35.1 °F 29.1 °F 72% 30.16 in 10.0 mi NNW 3.5 mph - N/A   Clear
10:35 PM 34.3 °F 30.2 °F 28.0 °F 78% 30.15 in 10.0 mi NNW 4.6 mph - N/A   Clear
10:55 PM 32.0 °F 27.5 °F 27.0 °F 82% 30.16 in 10.0 mi NW 4.6 mph - N/A   Clear
11:15 PM 32.0 °F 27.5 °F 27.1 °F 82% 30.16 in 10.0 mi NNW 4.6 mph - N/A   Clear
11:35 PM 32.5 °F 26.2 °F 27.3 °F 81% 30.17 in 10.0 mi NNW 6.9 mph - N/A   Clear
11:55 PM 35.2 °F 28.8 °F 27.9 °F 74% 30.17 in 10.0 mi NNW 8.1 mph - N/A   Clear